Location: Hains Lake
(37.8540°N, 99.8578°W)
Time: 19:26:27
(UTC+00:00)

Vanguard 3 - Pass Details

Date: 21 April 2021
Orbit: 508 x 3262 km, 33.4° (Epoch: 13 May)

Event Time Altitude Azimuth Distance (km) Brightness Sun altitude
Exits shadow 11:03:57 15° 251° (WSW) 1,434 7.8 -10.4°
Maximum altitude 11:06:31 33° 191° (SSW) 877 7.1 -9.9°
Drops below altitude 10° 11:10:07 10° 126° (SE) 1,868 9.5 -9.3°
Sets 11:12:48 0° 117° (ESE) 2,970 10.7 -8.8°
